Lander, WY

8:44 PM MDT on August 29, 2016 (GMT -0600)
Hunt

Weather History for KLND - August, 2012

Change the Weather History Date:

Tuesday, August 28, 2012

  Actual Average Record
Temperature  
Mean Temperature 80 °F 67 °F  
Max Temperature 94 °F 82 °F 94 °F (2012)
Min Temperature 65 °F 52 °F 36 °F (1911)
Degree Days  
Heating Degree Days 0 2  
Month to date heating degree days 2 17  
Since 1 June heating degree days 47 159  
Since 1 July heating degree days 2 33  
Cooling Degree Days 15 3  
Month to date cooling degree days 223 157  
Year to date cooling degree days 712 434  
Since 1 June cooling degree days 703 429  
Growing Degree Days 31 (Base 50)    
Moisture  
Dew Point 38 °F    
Average Humidity 25    
Maximum Humidity 36    
Minimum Humidity 13    
Precipitation  
Precipitation 0.00 in 0.02 in 0.51 in (1892)
Month to date precipitation 0.03 0.56  
Year to date precipitation 4.68 8.83  
Snow  
Snow 0.00 in 0.00 in - ()
Month to date snowfall 0.0 0.0  
Since 1 June snowfall 0.0 0.1  
Since 1 July snowfall 0.0 0.0  
Snow Depth 0.00 in    
Sea Level Pressure  
Sea Level Pressure 29.91 in    
Wind  
Wind Speed 7 mph (WSW)    
Max Wind Speed 17 mph    
Max Gust Speed 21 mph    
Visibility 10 miles    
Events      
T = Trace of Precipitation, MM = Missing Value Source: NWS Daily Summary

Daily Weather History Graph

Daily Weather History Graph

Search for Another Location

Airport or City:

Trip Planner

Search our weather history database for the weather conditions in past years. The results will help you decide how hot, cold, wet, or windy it might be!

Date:

Astronomy

Aug. 28, 2012 Rise Set
Actual Time 6:35 AM MDT 7:55 PM MDT
Civil Twilight 6:06 AM MDT 8:24 PM MDT
Nautical Twilight 5:31 AM MDT 8:59 PM MDT
Astronomical Twilight 4:53 AM MDT 9:36 PM MDT
Moon 6:02 PM MDT (8/28) 3:25 AM MDT (8/28)
Length of Visible Light 14h 18m
Length of Day
13h 19m
Waxing Gibbous, 91% of the Moon is Illuminated
Aug 28
Waxing Gibbous
Aug 31
Full
Sep 8
Last Quarter
Sep 15
New
Sep 22
First Quarter

Hourly Weather History & Observations

Time (MDT) Temp. Dew Point Humidity Pressure Visibility Wind Dir Wind Speed Gust Speed Precip Events Conditions
12:53 AM 77.0 °F 41.0 °F 28% 29.92 in 10.0 mi SW 17.3 mph - N/A   Clear
1:53 AM 75.9 °F 42.1 °F 30% 29.93 in 10.0 mi West 10.4 mph - N/A   Clear
2:53 AM 73.9 °F 39.9 °F 29% 29.94 in 10.0 mi WSW 10.4 mph - N/A   Clear
3:53 AM 75.0 °F 37.9 °F 26% 29.94 in 10.0 mi Variable 6.9 mph - N/A   Partly Cloudy
4:53 AM 70.0 °F 41.0 °F 35% 29.97 in 10.0 mi East 4.6 mph - N/A   Mostly Cloudy
5:53 AM 69.1 °F 41.0 °F 36% 29.98 in 10.0 mi NE 3.5 mph - N/A   Mostly Cloudy
6:53 AM 70.0 °F 37.9 °F 31% 30.01 in 10.0 mi Calm Calm - N/A   Partly Cloudy
7:53 AM 72.0 °F 37.9 °F 29% 30.04 in 10.0 mi West 8.1 mph - N/A   Clear
8:53 AM 75.9 °F 39.0 °F 26% 30.04 in 10.0 mi WNW 3.5 mph - N/A   Clear
9:53 AM 80.1 °F 41.0 °F 25% 30.04 in 10.0 mi East 3.5 mph - N/A   Clear
10:53 AM 84.9 °F 39.0 °F 20% 30.01 in 10.0 mi ENE 6.9 mph - N/A   Clear
11:53 AM 88.0 °F 36.0 °F 16% 29.98 in 10.0 mi Variable 4.6 mph - N/A   Clear
12:53 PM 90.0 °F 36.0 °F 15% 29.94 in 10.0 mi Variable 4.6 mph 17.3 mph N/A   Clear
1:53 PM 93.0 °F 37.0 °F 14% 29.91 in 10.0 mi ESE 8.1 mph 16.1 mph N/A   Clear
2:53 PM 91.9 °F 36.0 °F 14% 29.88 in 10.0 mi Variable 3.5 mph - N/A   Clear
3:53 PM 93.9 °F 35.1 °F 13% 29.84 in 10.0 mi North 8.1 mph - N/A   Clear
4:53 PM 91.9 °F 34.0 °F 13% 29.84 in 10.0 mi Calm Calm - N/A   Clear
5:53 PM 93.9 °F 35.1 °F 13% 29.81 in 10.0 mi Variable 4.6 mph - N/A   Clear
6:53 PM 91.0 °F 34.0 °F 13% 29.80 in 10.0 mi Calm Calm - N/A   Clear
7:53 PM 86.0 °F 37.0 °F 18% 29.81 in 10.0 mi Calm Calm - N/A   Clear
8:53 PM 80.1 °F 34.0 °F 19% 29.83 in 10.0 mi WSW 11.5 mph - N/A   Clear
9:53 PM 80.1 °F 36.0 °F 20% 29.82 in 10.0 mi SW 13.8 mph - N/A   Clear
10:53 PM 80.1 °F 39.0 °F 23% 29.81 in 10.0 mi SW 12.7 mph - N/A   Clear
11:53 PM 81.0 °F 39.9 °F 23% 29.80 in 10.0 mi SW 15.0 mph - N/A   Clear